User: anonymous
Location: Santa Teresa Spring
(37.2333°N, 121.7000°W)
Time: 17:26:14
(UTC-07:00)
Language:

Cosmos 1633 - Orbit

View from above orbital plane
View from above orbital plane
View from above satellite
View from above satellite

Ground track
Ground track

The orbit data is extracted from the following two-line orbital elements,

1 15592U 85020A   14265.41122387  .00006014  00000-0  28100-3 0  5578
2 15592 082.5401 235.1904 0019532 093.6677 022.4734 15.19432398612046
Epoch (UTC): 22 September 2014 09:52:09
Eccentricity: 0.0019532
inclination: 82.5401°
perigee height: 494 km
apogee height: 521 km
right ascension of ascending node: 235.1904°
argument of perigee: 93.6677°
revolutions per day: 15.19432398
mean anomaly at epoch: 22.4734°
orbit number at epoch: 61204

The dashed part of the orbit path shows where the satellite is in the earth's shadow,  

DLR